Weather in Arhypivka

Ukraine / Chernihiv Region     52°14′05″N   32°49′26″E
temp.,
°C
wind,
m/s
gust,
m/s
humid.,
%
clouds,
%
prec.,
mm/h
press.,
hPa
HPBL,
m
23 may, mon
mon2300:00+8n228677 0.0 100630
03:00+4n359196 0.0 100785
06:00+4nne368757 0.0 1008127
09:00+10ne35649 0.0 1008396
12:00+13n465093 0.0 10091611
15:00+14nnw454799 0.0 10092377
18:00+14nnw46579 0.0 10091610
21:00+8nnw33755 0.1 101042
24 may, tue
tue2400:00+5nnw34760 0.0 101144
03:00+4nw35725 0.0 101272
06:00+5wnw37863 0.0 1012156
09:00+11nnw697341 0.0 1012748
12:00+14nnw695290 0.0 10131901
15:00+15nnw676143 0.1 10121313
18:00+15nw58717 0.4 10131065
21:00+10wnw47836 0.7 101499
25 may, wed
wed2500:00+9nw48855 0.0 1015115
03:00+10nw3783100 0.0 1016139
06:00+10wnw378638 0.0 1016178
09:00+15nw476814 0.0 1017543
12:00+18wnw685757 0.4 10171467
15:00+19nw5651100 1.2 10172139
18:00+19wnw135597 0.0 1016887
21:00+15sw397081 0.0 1016197
26 may, thu
thu2600:00+11sw487573 0.0 1016122
03:00+11s4127591 0.0 1014205
06:00+13s71563100 0.1 1010469
09:00+12ssw81595100 2.3 1009621
12:00+14wnw7118614 1.3 1010979
15:00+19wnw8125911 1.6 10102025
18:00+17w8117281 0.4 10101048
21:00+13w6138540 1.0 1010438
27 may, fri
fri2700:00+12wsw6159095 0.0 1010439
03:00+12w71387100 0.1 1010693
06:00+11wnw814861 0.2 1010953
09:00+13wnw812663 0.2 10111353
12:00+16w8105310 0.0 10121952
15:00+17w81152100 0.0 10112125
18:00+15wsw5107591 0.0 1010903
21:00+14s4981100 0.0 1008253